Temp
7 8 8 8 8 8 8 8 8 8 8 8 8 8 8 8 8 8 8 8 8 8 8 8 8 8 8 8 8 9 9 9 9 9 9 9 9 9 9 9 9 9 9 9 9 9 9 9 8 8 8 8 8 8 8 8 9 9 9 9 9 9 10 10 10 10 10 10 11
7 7 7 7 7 7 7 8 8 8 8 8 8 8 8 8 8 8 8 8 8 8 8 8 8 8 8 8 8 8 8 9 9 9 9 9 9 9 9 9 9 9 9 9 9 9 9 8 8 8 8 8 8 8 8 8 8 8 8 9 9 9 9 9 10 10 10 10 10
7 7 7 7 7 7 7 7 7 7 8 8 8 8 8 8 8 8 8 8 8 8 8 8 8 8 8 8 8 8 8 8 8 9 9 9 9 9 9 9 9 9 9 9 9 9 9 8 8 8 8 8 8 8 8 8 8 8 8 8 8 9 9 9 9 9 9 9 9
7 7 7 7 7 7 7 7 7 7 7 7 7 7 8 8 8 8 8 8 8 8 8 8 8 8 8 8 7 8 8 8 8 8 8 8 9 9 9 9 9 9 9 9 9 9 9 8 8 8 8 8 8 8 8 8 8 8 8 8 8 8 8 8 8 8 8 8 9
6 6 7 7 7 7 7 7 7 7 7 7 7 7 7 7 7 7 8 8 8 8 8 8 8 7 7 7 7 7 7 7 7 8 8 8 8 8 9 9 9 9 9 9 9 9 9 9 8 8 8 8 8 8 8 8 8 8 8 8 8 8 8 8 8 8 8 8 8
6 6 6 6 6 7 7 7 7 7 7 7 7 7 7 7 7 7 7 7 7 7 8 7 7 7 7 7 7 7 7 7 7 7 7 7 7 8 8 8 8 8 8 9 9 9 9 9 8 8 8 8 8 8 8 8 8 8 8 8 8 8 8 8 8 8 8 8 7
6 6 6 6 6 6 6 6 7 7 7 7 7 7 7 7 7 7 7 7 7 7 7 7 7 7 7 7 7 7 7 7 7 7 7 7 7 7 7 8 8 8 8 8 8 8 9 9 8 8 8 8 8 8 8 8 8 8 8 8 8 8 8 8 8 8 7 7 7
5 5 6 6 6 6 6 6 6 6 6 7 7 7 7 7 7 7 7 7 7 7 7 7 7 7 7 7 7 7 7 7 7 7 7 7 7 7 7 7 7 7 8 8 8 8 8 8 8 8 8 8 8 8 8 8 8 8 7 7 7 7 7 7 7 7 7 7 7
5 5 5 5 6 6 6 6 6 6 6 6 6 6 6 6 7 7 7 7 7 7 7 7 7 7 7 7 7 7 7 7 7 7 7 7 7 7 7 7 7 7 7 7 7 7 8 8 8 8 8 8 8 8 8 8 8 8 8 7 7 7 7 7 7 7 7 7 7
5 5 5 5 5 5 5 5 6 6 6 6 6 6 6 6 6 6 7 7 7 7 7 7 7 7 7 7 7 7 7 7 7 6 6 6 7 7 7 7 7 7 7 7 7 7 7 7 7 7 7 8 8 8 8 8 8 8 8 8 8 8 8 8 8 8 7 7 7
5 5 5 5 5 5 5 5 5 5 5 6 6 6 6 6 6 6 6 6 6 6 6 6 6 6 6 7 7 7 7 7 7 7 6 6 6 6 6 6 7 7 7 7 7 7 7 7 7 7 7 7 7 7 7 7 7 7 7 7 7 7 8 8 8 8 8 8 8
5 5 5 5 5 5 5 5 5 5 5 5 5 5 6 6 6 6 6 6 6 6 6 6 6 6 6 6 6 6 6 7 7 7 7 7 6 6 6 6 6 6 6 7 7 7 7 7 7 7 7 7 7 7 7 7 7 7 7 7 7 7 7 7 8 8 8 8 8
5 5 5 5 5 5 5 5 5 5 5 5 5 5 5 5 5 6 6 6 6 6 6 6 6 6 6 6 6 6 6 6 6 6 7 7 7 6 6 6 6 6 6 6 6 6 7 7 7 7 7 6 6 6 6 6 6 6 6 6 6 7 7 7 7 7 7 7 7
5 5 5 5 5 5 5 5 5 5 5 5 5 5 5 5 5 5 5 6 6 6 6 6 6 6 6 6 6 6 6 6 6 6 6 6 6 6 6 6 6 6 6 6 6 6 6 6 6 7 7 6 6 6 6 6 6 6 6 6 6 6 6 6 6 6 7 7 7
5 5 5 5 5 5 5 5 5 5 5 5 5 5 5 5 5 5 5 5 5 6 6 6 6 6 6 6 6 6 6 6 6 6 6 6 6 6 6 6 6 6 6 6 6 6 6 6 6 6 6 6 6 6 7 6 6 6 6 5 5 5 6 6 6 6 6 6 6
4 4 4 5 5 5 5 5 5 5 5 5 5 5 5 5 5 5 5 5 5 5 5 5 6 6 6 6 6 6 6 6 6 6 6 6 6 6 6 6 6 6 6 6 6 6 6 6 6 6 6 6 6 7 7 7 7 7 6 6 5 5 5 5 6 6 6 6 6
4 4 4 4 4 4 4 4 4 5 5 5 5 5 5 5 5 5 5 5 5 5 5 5 5 5 5 6 6 6 6 6 6 6 6 6 6 6 6 6 6 6 6 6 6 6 6 6 6 6 6 6 6 6 7 7 7 7 7 7 6 6 5 5 5 6 6 6 5
4 4 4 4 4 4 4 4 4 4 4 4 4 5 5 5 5 5 5 5 5 5 5 5 5 5 5 5 5 5 6 6 6 6 6 6 6 6 6 6 6 6 6 6 6 6 6 6 6 6 6 6 6 6 6 7 7 7 7 7 7 7 6 6 6 6 6 6 5
3 3 4 4 4 4 4 4 4 4 4 4 4 4 4 4 5 5 5 5 5 5 5 5 5 5 5 5 5 5 5 5 5 6 6 6 6 6 6 6 6 6 6 6 6 6 6 5 5 6 6 6 6 6 6 6 7 7 7 7 7 7 7 7 7 6 6 6 6
3 3 3 3 3 3 3 3 3 3 3 4 4 4 4 4 4 4 4 5 5 5 5 5 5 5 5 5 5 5 5 5 5 5 5 5 6 6 6 6 6 6 6 6 6 6 6 6 6 5 5 5 6 6 6 6 6 6 7 7 7 7 7 7 7 7 7 7 6
3 3 3 3 3 3 3 3 3 3 3 3 3 3 3 3 4 4 4 4 4 4 5 5 5 5 5 5 5 5 5 5 5 5 5 5 5 5 5 5 6 6 6 6 6 6 6 6 6 6 5 5 5 5 5 6 6 6 6 6 7 7 7 7 7 7 7 7 7
3 3 3 3 3 3 3 3 3 3 3 3 3 3 3 3 3 3 3 4 4 4 4 4 5 5 5 5 5 5 5 5 5 5 5 5 5 5 5 5 5 5 5 5 5 6 6 6 6 6 5 5 5 5 5 5 5 5 6 6 6 6 6 7 7 7 7 7 7
3 3 3 3 3 3 3 3 3 3 3 3 3 3 3 3 3 3 3 3 3 3 4 4 4 4 5 5 5 5 5 5 5 5 5 5 5 5 5 5 5 5 5 5 5 5 5 5 5 5 5 5 6 6 6 5 5 5 5 5 6 6 6 6 6 6 7 7 7
2 2 2 2 3 3 3 3 3 3 3 3 3 3 3 3 3 3 3 3 3 3 3 3 3 4 4 5 5 5 5 5 5 5 5 5 5 5 5 5 5 5 5 5 5 5 5 5 5 5 5 5 5 5 6 6 6 6 6 6 6 6 6 6 6 6 6 6 7
2 2 2 2 2 2 2 3 3 3 3 3 3 3 3 3 3 3 3 3 3 3 3 3 3 3 4 4 4 5 5 5 5 5 5 5 5 5 5 5 5 5 5 5 5 5 5 5 5 5 5 5 5 5 5 5 5 6 6 6 6 6 6 6 6 6 6 6 6
2 2 2 2 2 2 2 2 2 2 2 2 3 3 3 3 3 3 3 3 3 3 3 3 3 3 3 3 4 4 4 4 5 5 5 5 5 5 5 5 5 5 5 5 5 5 5 5 5 5 5 5 5 5 5 5 5 5 5 6 6 6 6 6 6 6 6 6 6
2 2 2 2 2 2 2 2 2 2 2 2 2 2 2 2 2 3 3 3 3 3 3 3 3 3 3 3 3 3 4 4 4 4 4 4 4 5 5 5 5 5 5 5 5 5 5 5 5 5 5 5 5 5 5 5 5 5 5 5 6 6 6 6 6 6 6 6 6
2 2 2 2 2 2 2 2 2 2 2 2 2 2 2 2 2 2 2 2 2 3 3 3 3 3 3 3 3 3 3 3 4 4 4 4 4 4 4 4 4 4 5 5 5 5 5 5 5 5 5 5 4 4 5 5 5 5 5 5 5 5 6 6 6 6 6 6 6
1 1 1 1 2 2 2 2 2 2 2 2 2 2 2 2 2 2 2 2 2 2 2 2 2 3 3 3 3 3 3 3 3 3 4 4 4 4 4 4 4 4 4 4 4 4 4 5 5 5 5 4 4 4 4 4 4 5 5 5 5 5 5 5 6 6 6 6 6
1 1 1 1 1 1 1 1 2 2 2 2 2 2 2 2 2 2 2 2 2 2 2 2 2 2 2 2 3 3 3 3 3 3 3 3 4 4 4 4 4 4 4 4 4 4 4 4 4 4 4 4 4 4 4 4 4 4 5 5 5 5 5 5 5 6 6 6 6
0 1 1 1 1 1 1 1 1 1 1 1 1 1 2 2 2 2 2 2 2 2 2 2 2 2 2 2 2 2 2 2 3 3 3 3 3 3 3 3 3 3 3 3 3 3 4 4 4 4 4 4 4 4 4 4 4 4 4 5 5 5 5 5 5 5 5 5 6
-0 -0 0 0 0 1 1 1 1 1 1 1 1 1 1 1 1 1 1 1 1 1 1 1 2 2 2 2 2 2 2 2 2 2 3 3 3 3 3 3 3 3 3 3 3 3 3 3 3 4 4 4 4 4 4 4 4 4 4 4 4 5 5 5 5 5 5 5 5
-1 -1 -1 -0 -0 0 0 0 0 0 0 0 1 1 1 1 1 1 1 1 1 1 1 1 1 1 1 1 1 1 1 1 2 2 2 2 2 2 2 3 3 3 3 3 3 3 3 3 3 3 3 3 3 3 4 4 4 4 4 4 4 4 4 4 5 5 5 5 5
-1 -1 -1 -1 -1 -1 -0 -0 -0 -0 0 0 0 0 0 0 0 0 1 1 1 1 1 1 1 1 1 1 1 1 1 1 1 1 1 1 1 1 2 2 2 2 3 3 3 3 3 3 3 3 3 3 3 3 3 3 4 4 4 4 4 4 4 4 4 4 4 4 4
-2 -2 -2 -2 -1 -1 -1 -1 -1 -0 -0 -0 -0 -0 -0 -0 -0 -0 -0 -0 -0 0 0 0 0 0 0 0 0 -0 0 0 0 0 0 -0 0 0 1 1 1 2 2 2 2 2 2 3 3 2 2 2 2 2 2 3 3 3 4 4 4 4 4 4 4 4 4 4 4
-3 -2 -2 -2 -2 -2 -2 -1 -1 -1 -1 -1 -1 -1 -0 -0 -1 -1 -1 -1 -1 -1 -0 -0 -0 -0 -0 -0 -0 -0 -0 -0 -0 -0 -1 -1 -1 -1 -0 0 0 1 1 1 2 2 2 2 2 2 2 2 2 2 2 2 3 3 3 4 4 4 4 4 4 4 4 4 4
-3 -3 -3 -3 -3 -2 -2 -2 -2 -2 -1 -1 -1 -1 -1 -1 -1 -1 -1 -1 -1 -1 -1 -1 -1 -1 -1 -1 -1 -1 -1 -1 -1 -1 -1 -1 -1 -1 -1 -1 -0 0 0 1 1 1 1 2 2 2 2 2 2 2 2 2 2 3 3 3 4 4 4 4 4 4 4 4 4
-3 -3 -3 -3 -3 -3 -3 -2 -2 -2 -2 -2 -2 -2 -1 -1 -1 -1 -1 -1 -2 -2 -2 -2 -1 -1 -1 -1 -1 -1 -1 -1 -1 -1 -1 -1 -1 -1 -1 -1 -1 -0 -0 -0 0 0 1 1 1 1 2 2 2 2 2 2 2 2 3 3 3 4 4 4 4 4 4 4 4
-3 -3 -3 -3 -3 -3 -3 -3 -3 -3 -3 -2 -2 -2 -2 -2 -2 -2 -2 -2 -2 -2 -2 -2 -2 -2 -2 -2 -2 -2 -2 -2 -2 -2 -2 -2 -2 -2 -2 -1 -1 -1 -1 -1 -0 -0 -0 0 1 1 1 1 1 1 2 2 2 2 2 3 3 3 4 4 4 4 4 4 4
-4 -3 -3 -3 -3 -3 -3 -3 -3 -3 -3 -3 -3 -3 -2 -2 -2 -2 -2 -2 -2 -2 -2 -2 -2 -2 -2 -2 -3 -2 -2 -2 -2 -2 -2 -2 -2 -2 -2 -2 -1 -1 -1 -1 -1 -1 -1 -0 -0 0 1 1 1 1 1 1 1 2 2 2 3 3 3 3 3 4 4 4 4
-4 -4 -4 -3 -3 -3 -3 -3 -3 -3 -3 -3 -3 -3 -3 -3 -3 -2 -2 -2 -2 -2 -2 -2 -2 -2 -2 -3 -3 -3 -3 -3 -2 -2 -2 -2 -2 -2 -2 -2 -2 -1 -1 -1 -1 -1 -1 -1 -1 -0 -0 0 0 1 1 1 1 1 1 2 2 2 3 3 3 3 3 4 4
Height
1457 1457 1457 1456 1456 1456 1456 1456 1456 1456 1456 1456 1456 1455 1455 1454 1454 1453 1453 1452 1451 1451 1451 1450 1450 1450 1450 1449 1449 1449 1448 1448 1448 1447 1447 1447 1447 1447 1447 1447 1447 1447 1447 1447 1447 1448 1448 1448 1448 1448 1449 1449 1450 1450 1451 1451 1451 1451 1451 1452 1453 1454 1455 1456 1456 1457 1458 1459 1460
1457 1457 1457 1456 1456 1456 1456 1456 1456 1456 1456 1456 1455 1455 1455 1454 1454 1453 1453 1452 1452 1451 1451 1450 1450 1449 1449 1449 1449 1449 1448 1448 1448 1447 1447 1447 1447 1446 1446 1446 1446 1447 1447 1447 1447 1447 1447 1448 1448 1448 1448 1448 1449 1449 1450 1450 1450 1450 1451 1451 1451 1452 1453 1454 1455 1456 1456 1457 1458
1457 1457 1457 1456 1456 1455 1455 1455 1455 1455 1455 1455 1455 1455 1454 1454 1454 1453 1453 1452 1452 1451 1451 1450 1450 1449 1449 1448 1448 1448 1448 1448 1448 1447 1447 1447 1447 1446 1446 1446 1446 1446 1446 1446 1446 1447 1447 1447 1447 1447 1448 1448 1448 1448 1449 1449 1449 1449 1449 1450 1450 1451 1452 1453 1454 1454 1455 1456 1457
1458 1457 1457 1456 1456 1455 1455 1454 1454 1454 1454 1454 1454 1454 1453 1453 1453 1453 1453 1452 1452 1451 1451 1450 1450 1449 1448 1448 1447 1447 1447 1447 1447 1447 1447 1447 1447 1446 1446 1446 1446 1446 1446 1446 1446 1446 1446 1446 1447 1447 1447 1447 1447 1447 1447 1448 1448 1448 1448 1448 1449 1450 1450 1451 1452 1453 1454 1454 1455
1459 1458 1457 1456 1456 1456 1455 1454 1454 1453 1453 1453 1453 1452 1452 1452 1452 1452 1452 1452 1452 1451 1451 1450 1450 1449 1448 1447 1447 1446 1446 1446 1446 1446 1446 1446 1446 1446 1446 1446 1446 1445 1445 1445 1445 1445 1445 1446 1446 1446 1446 1446 1446 1446 1446 1446 1447 1447 1447 1448 1448 1448 1449 1450 1451 1451 1452 1453 1454
1459 1458 1458 1457 1456 1456 1455 1454 1454 1453 1453 1452 1452 1452 1451 1451 1451 1451 1451 1451 1451 1451 1451 1450 1449 1449 1448 1447 1447 1446 1446 1445 1445 1445 1445 1445 1445 1445 1445 1445 1445 1445 1445 1445 1445 1445 1445 1445 1445 1445 1446 1446 1445 1445 1445 1446 1446 1446 1446 1447 1447 1448 1448 1449 1450 1450 1451 1452 1453
1460 1459 1458 1458 1457 1456 1455 1455 1454 1453 1453 1452 1451 1451 1451 1450 1450 1450 1450 1450 1450 1450 1449 1449 1449 1448 1448 1447 1446 1446 1446 1445 1445 1444 1444 1444 1444 1444 1444 1444 1444 1444 1444 1444 1444 1444 1444 1444 1444 1444 1445 1445 1445 1444 1444 1445 1445 1445 1446 1446 1446 1447 1447 1448 1449 1449 1450 1451 1452
1460 1459 1459 1458 1457 1456 1456 1455 1454 1453 1453 1452 1451 1451 1450 1450 1449 1449 1449 1449 1448 1448 1448 1448 1448 1448 1447 1447 1446 1446 1445 1445 1445 1444 1444 1443 1443 1443 1443 1443 1443 1444 1444 1444 1444 1444 1444 1444 1444 1444 1444 1444 1444 1444 1444 1444 1444 1444 1445 1445 1446 1446 1447 1447 1448 1448 1449 1450 1451
1460 1460 1459 1458 1458 1457 1456 1455 1455 1454 1453 1452 1452 1451 1450 1450 1449 1449 1448 1448 1447 1447 1447 1447 1447 1446 1446 1446 1446 1446 1445 1445 1444 1444 1444 1443 1443 1443 1443 1442 1442 1442 1443 1443 1443 1443 1443 1443 1443 1443 1443 1443 1443 1443 1443 1443 1444 1444 1444 1444 1445 1445 1446 1446 1447 1447 1448 1449 1449
1461 1460 1459 1459 1458 1457 1457 1456 1455 1454 1454 1453 1452 1451 1451 1450 1449 1449 1448 1447 1447 1446 1446 1446 1446 1446 1445 1445 1445 1445 1445 1444 1444 1443 1443 1443 1443 1443 1442 1442 1442 1442 1441 1442 1442 1442 1442 1442 1442 1442 1442 1443 1443 1443 1443 1443 1443 1443 1443 1443 1443 1444 1445 1445 1446 1446 1447 1447 1448
1461 1461 1460 1459 1458 1458 1457 1456 1456 1455 1454 1453 1452 1451 1451 1450 1450 1449 1448 1448 1447 1446 1446 1445 1445 1444 1444 1444 1444 1444 1444 1444 1443 1443 1443 1442 1442 1442 1442 1442 1441 1441 1441 1441 1441 1441 1441 1441 1441 1441 1441 1442 1442 1442 1442 1442 1442 1443 1443 1443 1443 1443 1443 1443 1444 1445 1445 1446 1446
1462 1461 1460 1459 1459 1458 1457 1456 1456 1455 1454 1453 1452 1452 1451 1450 1450 1449 1449 1448 1447 1447 1446 1446 1445 1444 1444 1443 1443 1443 1443 1443 1442 1442 1442 1442 1441 1441 1441 1441 1441 1441 1441 1440 1440 1440 1440 1440 1440 1440 1440 1441 1441 1441 1441 1442 1442 1442 1442 1442 1442 1442 1442 1442 1443 1443 1444 1444 1445
1462 1461 1461 1460 1459 1458 1457 1456 1456 1455 1454 1453 1453 1452 1451 1450 1450 1449 1448 1448 1447 1447 1446 1446 1445 1444 1444 1443 1442 1442 1442 1442 1441 1441 1441 1441 1441 1441 1440 1440 1440 1440 1440 1440 1440 1439 1439 1439 1439 1439 1439 1439 1439 1440 1440 1440 1441 1441 1441 1441 1441 1441 1442 1442 1442 1442 1442 1443 1443
1461 1461 1460 1460 1459 1458 1457 1456 1456 1455 1454 1454 1453 1452 1451 1451 1450 1449 1448 1447 1447 1446 1446 1446 1445 1445 1444 1443 1442 1442 1441 1441 1441 1441 1440 1440 1440 1440 1439 1439 1439 1439 1438 1438 1438 1439 1438 1438 1438 1438 1438 1438 1438 1438 1438 1439 1439 1440 1440 1440 1440 1440 1441 1441 1441 1441 1442 1442 1442
1460 1460 1459 1459 1458 1457 1457 1456 1456 1455 1454 1453 1453 1452 1451 1451 1450 1449 1448 1447 1447 1446 1446 1445 1445 1445 1444 1444 1443 1442 1442 1441 1441 1440 1440 1440 1439 1439 1439 1438 1438 1438 1437 1437 1437 1437 1437 1437 1437 1437 1437 1437 1437 1437 1437 1438 1438 1438 1439 1439 1439 1439 1439 1440 1440 1440 1441 1441 1441
1459 1458 1458 1457 1457 1456 1456 1456 1455 1454 1454 1453 1452 1452 1451 1451 1450 1449 1448 1447 1447 1446 1446 1445 1445 1444 1444 1444 1443 1443 1442 1441 1441 1440 1440 1439 1439 1438 1438 1438 1437 1437 1437 1436 1436 1436 1436 1436 1436 1436 1436 1436 1436 1436 1436 1436 1437 1437 1437 1438 1438 1437 1438 1438 1439 1439 1439 1440 1440
1458 1457 1457 1456 1456 1455 1455 1454 1454 1453 1453 1452 1452 1451 1451 1450 1449 1449 1448 1447 1446 1446 1446 1445 1444 1444 1443 1443 1443 1442 1442 1441 1441 1440 1440 1439 1438 1438 1437 1437 1437 1436 1436 1436 1435 1435 1435 1434 1434 1434 1435 1435 1435 1435 1435 1435 1436 1436 1436 1436 1437 1437 1437 1437 1437 1438 1438 1438 1438
1458 1457 1456 1456 1455 1454 1454 1453 1453 1452 1452 1451 1451 1450 1450 1449 1449 1448 1448 1447 1446 1446 1445 1445 1444 1444 1443 1443 1442 1442 1442 1441 1441 1440 1440 1439 1438 1438 1437 1436 1436 1436 1435 1435 1435 1434 1434 1434 1433 1433 1433 1433 1433 1434 1434 1434 1434 1434 1435 1435 1436 1436 1436 1436 1436 1437 1437 1437 1437
1457 1456 1456 1455 1454 1454 1453 1452 1452 1451 1451 1450 1450 1449 1449 1448 1448 1447 1447 1446 1446 1445 1445 1444 1443 1443 1442 1442 1442 1441 1441 1441 1441 1440 1440 1439 1438 1438 1437 1436 1436 1435 1435 1434 1434 1434 1433 1433 1433 1432 1432 1432 1432 1432 1432 1432 1432 1433 1433 1433 1434 1434 1435 1435 1435 1436 1436 1436 1436
1456 1456 1455 1454 1454 1453 1452 1451 1451 1450 1450 1449 1449 1448 1448 1447 1446 1446 1446 1445 1445 1444 1444 1443 1443 1442 1442 1441 1441 1441 1441 1440 1440 1440 1439 1439 1438 1437 1437 1436 1436 1435 1435 1434 1434 1433 1433 1432 1432 1432 1431 1431 1431 1431 1431 1431 1431 1431 1431 1431 1432 1432 1433 1433 1434 1434 1434 1434 1435
1456 1455 1454 1454 1453 1452 1451 1451 1450 1450 1449 1448 1448 1447 1447 1446 1446 1445 1445 1444 1444 1443 1443 1442 1442 1441 1441 1440 1440 1440 1439 1439 1439 1439 1438 1438 1437 1437 1436 1436 1435 1435 1434 1434 1433 1433 1432 1432 1431 1431 1431 1430 1430 1430 1430 1430 1430 1430 1430 1430 1430 1430 1431 1431 1431 1432 1432 1432 1433
1455 1454 1453 1452 1452 1451 1451 1450 1449 1449 1448 1447 1447 1446 1446 1445 1445 1444 1443 1443 1442 1442 1442 1441 1441 1440 1440 1439 1439 1438 1438 1438 1438 1437 1437 1437 1436 1436 1436 1435 1435 1434 1434 1433 1433 1432 1431 1431 1431 1430 1430 1429 1429 1429 1428 1428 1428 1428 1428 1428 1428 1428 1429 1429 1429 1430 1430 1431 1431
1454 1453 1452 1451 1451 1450 1449 1449 1448 1447 1447 1446 1446 1445 1445 1444 1443 1443 1442 1442 1441 1441 1441 1440 1440 1439 1438 1438 1437 1437 1437 1436 1436 1436 1436 1436 1435 1435 1435 1434 1434 1433 1433 1432 1432 1431 1431 1430 1430 1430 1429 1428 1428 1427 1427 1427 1426 1426 1426 1426 1426 1427 1427 1427 1427 1428 1428 1428 1429
1454 1453 1452 1451 1450 1449 1448 1447 1447 1446 1446 1445 1444 1444 1443 1443 1442 1442 1441 1441 1440 1440 1439 1439 1438 1438 1437 1437 1436 1436 1436 1435 1435 1434 1434 1434 1434 1433 1433 1433 1433 1432 1432 1431 1431 1431 1430 1429 1429 1428 1428 1428 1427 1426 1426 1426 1425 1425 1425 1425 1425 1425 1425 1425 1426 1426 1426 1426 1427
1453 1452 1451 1451 1450 1449 1448 1447 1446 1445 1444 1444 1443 1442 1442 1441 1441 1440 1440 1439 1439 1438 1438 1437 1437 1436 1436 1436 1435 1435 1434 1434 1433 1433 1432 1432 1432 1432 1431 1431 1431 1431 1431 1431 1430 1430 1429 1428 1428 1427 1427 1426 1426 1426 1425 1425 1424 1424 1424 1423 1423 1423 1423 1423 1424 1424 1424 1425 1425
1453 1452 1451 1450 1449 1448 1447 1446 1445 1444 1443 1442 1442 1441 1441 1440 1440 1439 1439 1438 1437 1437 1436 1436 1435 1435 1434 1434 1433 1433 1433 1432 1432 1431 1431 1431 1430 1430 1430 1430 1429 1429 1429 1429 1429 1428 1428 1427 1427 1426 1426 1425 1425 1425 1424 1424 1423 1423 1423 1422 1422 1422 1422 1422 1422 1422 1422 1422 1423
1452 1451 1450 1449 1448 1447 1446 1446 1445 1444 1443 1442 1441 1440 1439 1439 1438 1438 1437 1437 1436 1436 1435 1435 1434 1433 1433 1432 1432 1431 1431 1431 1431 1430 1430 1429 1429 1428 1428 1428 1427 1427 1427 1427 1427 1427 1426 1426 1426 1426 1425 1424 1424 1423 1423 1423 1422 1422 1422 1421 1421 1421 1421 1421 1420 1420 1420 1421 1421
1451 1450 1449 1448 1447 1446 1446 1445 1444 1443 1442 1441 1440 1439 1438 1437 1437 1436 1436 1435 1435 1434 1434 1433 1432 1432 1431 1431 1430 1430 1429 1429 1429 1428 1428 1428 1427 1427 1426 1426 1426 1426 1425 1425 1425 1425 1425 1425 1425 1424 1424 1423 1423 1422 1422 1421 1421 1421 1421 1420 1420 1420 1420 1419 1419 1419 1419 1419 1419
1450 1449 1448 1447 1446 1445 1444 1444 1443 1442 1441 1440 1439 1438 1437 1436 1436 1435 1434 1434 1433 1432 1432 1431 1431 1430 1430 1429 1428 1428 1428 1427 1427 1427 1426 1426 1426 1425 1425 1425 1424 1424 1423 1423 1423 1423 1422 1422 1423 1422 1422 1422 1421 1421 1420 1420 1420 1419 1419 1419 1419 1419 1418 1418 1418 1418 1418 1417 1417
1448 1447 1446 1445 1444 1444 1443 1442 1441 1440 1440 1439 1438 1437 1436 1435 1434 1433 1432 1432 1431 1431 1430 1429 1429 1428 1428 1427 1427 1426 1426 1426 1425 1425 1425 1424 1424 1423 1423 1423 1422 1422 1421 1421 1421 1421 1420 1420 1420 1420 1420 1420 1420 1419 1419 1418 1418 1417 1417 1417 1417 1417 1417 1417 1417 1417 1416 1416 1416
1447 1446 1445 1444 1443 1442 1441 1440 1439 1439 1438 1437 1436 1435 1435 1434 1433 1432 1431 1430 1429 1428 1428 1427 1427 1426 1426 1425 1425 1424 1424 1423 1423 1423 1423 1422 1422 1421 1421 1421 1421 1420 1420 1420 1419 1419 1418 1418 1418 1418 1418 1418 1417 1417 1417 1416 1416 1416 1415 1415 1415 1415 1415 1415 1415 1415 1415 1415 1415
1446 1445 1444 1442 1441 1441 1440 1439 1437 1436 1436 1435 1434 1433 1433 1432 1431 1430 1430 1428 1427 1426 1426 1425 1424 1424 1423 1423 1423 1422 1421 1421 1421 1421 1421 1420 1420 1420 1419 1419 1419 1419 1418 1418 1417 1417 1416 1416 1416 1415 1415 1415 1415 1415 1414 1414 1414 1413 1413 1413 1413 1413 1413 1413 1413 1413 1413 1413 1413
1444 1443 1442 1441 1440 1439 1438 1437 1436 1435 1434 1433 1432 1431 1430 1430 1429 1428 1427 1427 1426 1425 1424 1423 1422 1421 1421 1421 1420 1420 1419 1419 1418 1418 1418 1418 1417 1417 1417 1417 1417 1417 1416 1416 1416 1415 1415 1414 1414 1413 1413 1412 1412 1412 1412 1411 1411 1411 1411 1411 1410 1411 1411 1411 1411 1411 1411 1411 1411
1442 1441 1440 1439 1438 1437 1436 1436 1434 1433 1432 1431 1430 1429 1428 1427 1426 1426 1425 1424 1424 1423 1422 1421 1420 1420 1419 1418 1418 1417 1417 1416 1416 1416 1415 1415 1415 1415 1414 1414 1414 1415 1415 1415 1414 1414 1413 1413 1412 1411 1411 1411 1410 1409 1409 1409 1408 1408 1408 1408 1408 1408 1408 1408 1408 1408 1409 1409 1409
1441 1440 1439 1438 1437 1436 1435 1434 1433 1432 1431 1429 1428 1427 1426 1425 1424 1423 1422 1422 1421 1421 1420 1419 1418 1418 1417 1416 1416 1415 1415 1414 1414 1413 1413 1413 1412 1412 1411 1411 1411 1412 1412 1412 1412 1412 1411 1411 1411 1410 1409 1409 1408 1407 1406 1406 1406 1406 1405 1405 1405 1405 1405 1406 1406 1406 1406 1406 1406
1439 1438 1437 1436 1435 1434 1433 1432 1431 1430 1429 1427 1426 1425 1424 1423 1422 1421 1420 1419 1418 1418 1417 1416 1416 1415 1415 1414 1413 1413 1412 1412 1411 1411 1410 1410 1410 1409 1409 1408 1408 1409 1409 1409 1409 1410 1409 1409 1409 1408 1408 1407 1406 1405 1405 1404 1403 1403 1402 1402 1402 1403 1403 1403 1403 1403 1403 1403 1403
1438 1437 1436 1434 1433 1432 1431 1430 1429 1428 1427 1426 1425 1424 1422 1421 1420 1419 1418 1417 1416 1415 1414 1413 1413 1412 1412 1411 1411 1410 1410 1409 1409 1408 1408 1407 1407 1406 1406 1405 1405 1405 1406 1406 1406 1406 1407 1407 1406 1406 1406 1405 1404 1403 1403 1402 1401 1400 1400 1400 1400 1400 1400 1401 1401 1401 1401 1401 1401
1436 1435 1434 1433 1431 1430 1429 1428 1427 1426 1425 1423 1422 1421 1421 1420 1418 1417 1416 1416 1414 1412 1411 1411 1410 1410 1409 1409 1408 1407 1407 1406 1406 1406 1405 1405 1404 1404 1403 1402 1402 1402 1402 1403 1403 1403 1403 1404 1404 1404 1404 1403 1402 1401 1401 1400 1399 1398 1398 1397 1397 1397 1397 1398 1398 1398 1398 1398 1399
1435 1434 1432 1431 1430 1428 1427 1426 1425 1424 1422 1421 1420 1419 1418 1417 1416 1415 1414 1414 1412 1411 1409 1408 1407 1406 1406 1406 1405 1404 1404 1403 1403 1403 1402 1402 1401 1401 1401 1400 1399 1399 1399 1400 1400 1400 1400 1400 1401 1401 1401 1401 1400 1399 1399 1398 1397 1396 1396 1395 1395 1395 1395 1395 1395 1395 1395 1396 1396
1433 1432 1431 1430 1428 1427 1426 1424 1423 1422 1421 1420 1418 1417 1416 1415 1414 1413 1412 1411 1410 1409 1407 1406 1405 1404 1403 1403 1402 1401 1400 1400 1400 1400 1400 1399 1398 1398 1398 1397 1396 1396 1396 1396 1396 1396 1396 1397 1397 1397 1397 1397 1397 1396 1396 1395 1395 1394 1393 1393 1392 1392 1392 1392 1392 1392 1392 1392 1393
1431 1430 1429 1428 1426 1425 1424 1422 1421 1420 1419 1418 1416 1415 1414 1413 1411 1410 1409 1408 1407 1406 1405 1404 1403 1401 1401 1400 1399 1398 1397 1396 1396 1396 1396 1396 1395 1395 1394 1394 1393 1392 1392 1392 1393 1393 1393 1393 1393 1393 1394 1394 1394 1393 1393 1392 1392 1391 1390 1390 1390 1390 1390 1390 1390 1390 1390 1390 1390
Wind_Speed
13 13 13 12 12 11 11 10 10 10 11 12 13 14 15 16 18 19 20 21 21 22 22 22 21 19 18 17 17 16 16 17 17 18 18 17 15 14 13 12 11 11 12 12 13 14 14 14 14 15 15 16 17 18 19 20 20 21 22 23 23 24 24 24 25 25 25 25 25
14 14 14 13 13 13 13 12 11 11 11 12 12 12 13 13 14 16 17 19 20 21 22 22 22 21 20 19 19 18 17 17 17 18 18 18 18 17 16 15 14 13 12 12 12 13 13 13 14 14 15 16 17 18 18 19 20 20 21 22 23 24 25 25 26 26 27 27 28
15 15 14 14 14 14 14 14 13 13 12 12 12 12 12 12 12 13 14 16 17 19 20 21 21 21 21 21 20 19 18 18 18 18 18 19 19 20 19 19 18 16 15 14 13 13 13 13 14 14 15 16 17 17 18 19 20 20 21 22 22 24 25 25 26 27 27 28 29
17 17 16 15 15 15 15 14 14 14 13 13 13 12 12 12 12 12 12 13 15 16 18 19 20 21 21 21 21 20 20 19 18 18 18 18 18 19 20 20 20 19 18 16 15 15 15 14 14 15 15 15 16 17 18 19 20 20 21 21 22 23 24 25 25 26 27 27 28
19 19 18 17 17 16 16 15 15 14 14 13 13 13 12 12 12 12 12 12 13 14 15 17 18 19 20 20 21 21 20 20 19 19 18 18 17 17 18 19 19 19 18 18 17 17 16 16 16 16 16 16 16 16 17 18 19 20 21 22 22 23 23 24 24 25 25 25 26
20 20 19 19 18 18 17 17 16 15 15 14 13 13 13 12 12 12 12 12 12 13 13 14 16 17 18 19 20 20 21 21 20 20 19 18 18 17 17 17 18 18 18 18 18 18 18 18 17 17 17 17 17 16 16 17 18 19 20 21 22 23 23 23 23 23 24 24 24
20 20 20 20 19 19 19 18 17 17 16 15 14 14 13 13 12 12 12 12 12 12 12 13 14 15 16 17 18 19 20 20 21 20 20 20 19 18 17 17 17 17 17 18 18 18 18 19 19 19 19 18 18 18 17 17 17 18 19 20 21 22 22 22 23 23 23 23 22
20 20 20 20 20 19 19 19 19 18 17 17 16 15 14 14 13 13 12 12 12 12 12 12 12 13 14 15 16 17 18 19 20 20 21 21 20 20 19 18 17 17 17 17 17 17 18 18 18 19 20 20 20 19 19 18 18 18 19 19 20 21 21 22 22 22 22 22 22
20 20 19 19 19 19 19 19 19 19 19 18 18 17 16 16 15 14 13 13 13 13 12 12 12 12 13 13 14 15 16 17 19 20 20 21 21 21 21 20 19 19 18 17 17 17 17 17 17 18 19 20 21 21 21 20 20 20 20 20 21 21 21 22 22 22 22 22 22
21 21 20 19 19 19 19 19 19 19 19 19 19 19 18 18 17 16 15 15 14 13 13 12 12 12 12 12 13 13 14 15 16 18 19 20 21 21 21 21 21 21 20 20 19 18 18 17 17 17 18 19 20 21 22 22 22 22 22 22 22 22 22 22 22 22 22 22 22
22 21 21 20 20 19 19 18 18 18 19 19 19 19 19 19 19 18 18 17 16 15 14 13 13 13 12 12 12 13 13 14 14 15 17 18 19 20 21 22 22 22 22 22 21 21 20 19 18 18 17 17 18 19 20 21 22 22 22 22 22 22 22 23 23 23 23 23 22
22 22 21 21 20 20 19 18 18 18 18 19 19 19 20 20 20 20 19 19 18 17 16 15 14 13 13 12 12 13 13 13 13 14 15 16 17 18 19 21 21 22 23 23 23 23 23 22 21 19 18 18 17 17 17 18 19 19 20 20 21 21 22 22 23 24 24 24 23
23 23 22 22 21 20 20 19 19 18 18 18 19 19 19 20 20 20 20 20 19 19 18 17 16 15 14 13 13 13 13 13 13 13 14 14 15 16 17 18 19 21 22 22 23 24 24 24 23 21 20 19 18 17 16 16 16 16 17 17 18 19 19 20 21 23 24 24 24
25 25 24 23 23 22 21 20 20 19 19 19 19 19 19 19 20 20 20 20 20 20 19 18 18 17 16 15 14 14 13 13 13 13 13 14 15 15 16 17 18 19 20 21 21 22 23 23 23 22 21 20 19 18 17 16 16 16 16 16 16 17 17 18 18 20 21 22 24
27 27 26 26 25 24 23 22 21 20 20 20 20 19 19 19 20 20 20 20 20 20 19 19 19 18 17 17 16 15 14 14 13 13 13 13 14 14 15 16 17 18 19 20 20 21 21 22 22 22 21 20 20 19 18 18 17 17 16 16 16 16 16 17 17 17 18 19 21
28 28 28 27 27 25 24 23 23 22 21 21 20 20 20 20 20 20 20 20 20 20 20 20 19 19 18 18 17 17 16 15 15 14 14 13 13 14 14 15 15 16 17 19 20 21 21 21 21 21 21 21 21 21 21 21 20 19 18 17 16 16 16 17 18 18 18 18 18
28 28 28 28 27 26 25 25 24 23 23 22 21 21 21 21 20 21 21 21 21 21 20 20 20 19 19 19 19 18 18 17 16 15 15 14 14 13 13 13 14 15 16 17 18 20 21 21 21 21 22 22 22 22 23 23 23 22 21 19 18 17 17 17 19 19 19 19 18
27 27 28 27 27 26 26 25 25 24 23 23 22 22 22 21 21 21 21 22 22 22 22 21 21 20 20 19 19 19 19 19 18 17 17 16 15 14 14 13 13 13 14 14 16 17 19 20 21 22 22 22 23 23 23 24 24 24 23 23 21 20 19 20 21 22 22 21 19
26 26 26 26 26 26 26 25 25 24 24 23 23 22 22 22 22 22 21 22 22 22 23 23 22 22 21 20 20 19 19 19 19 19 18 18 17 16 15 15 14 13 13 13 13 14 15 17 18 20 21 22 22 23 23 24 24 24 24 24 23 23 22 23 23 24 24 23 22
25 25 25 25 25 25 25 25 25 24 24 23 23 23 22 22 22 22 22 22 22 22 23 23 24 23 23 22 21 20 20 20 20 20 19 19 19 18 17 16 16 15 14 14 13 13 13 14 15 16 17 18 19 20 22 23 23 24 24 24 24 23 23 23 24 25 25 25 24
26 25 25 25 25 24 24 24 24 24 24 23 23 23 23 23 23 23 23 23 22 22 22 23 23 24 24 24 23 22 21 20 20 20 20 20 20 19 19 18 17 16 16 15 15 14 14 14 14 14 15 16 16 17 18 19 21 22 23 24 24 24 23 23 24 24 25 25 26
27 26 26 26 26 25 25 25 24 24 24 24 24 23 23 23 23 23 24 24 23 23 22 22 22 23 24 25 25 25 24 23 22 21 21 20 20 20 20 20 19 18 17 17 16 16 16 16 15 15 15 15 15 15 16 16 17 18 20 21 22 23 24 24 24 24 25 25 26
27 27 27 27 27 27 26 26 26 25 25 25 24 24 24 24 24 24 24 24 24 24 23 23 22 22 22 23 24 25 25 25 24 23 22 21 21 21 21 21 20 20 19 18 18 17 17 17 17 16 16 16 16 15 15 15 15 16 17 18 19 21 22 23 24 24 25 25 25
26 27 27 27 27 28 28 28 27 27 27 26 26 25 25 24 24 24 24 24 25 25 25 24 24 22 22 22 23 24 25 25 25 24 23 22 22 21 21 21 21 21 20 19 19 19 18 18 18 18 18 17 17 17 16 16 16 16 16 16 17 18 19 20 22 23 24 25 25
26 27 27 27 28 28 28 29 29 29 28 28 27 27 26 25 25 25 24 24 25 25 25 25 25 25 23 22 21 22 23 24 24 24 24 23 23 22 22 22 22 21 21 20 20 19 19 19 19 19 19 19 19 18 18 17 17 17 17 17 16 17 17 18 19 20 21 22 24
27 27 27 28 28 28 29 29 29 29 29 29 29 28 28 27 26 26 25 25 25 25 25 25 26 26 25 24 22 21 21 22 23 24 24 24 23 23 23 22 22 22 21 21 21 20 20 20 20 20 21 21 20 20 19 19 18 18 18 18 18 17 17 18 18 18 19 20 21
27 28 28 28 28 29 29 29 29 30 30 30 30 30 29 29 28 27 27 26 25 25 25 25 25 26 26 26 24 23 23 22 23 23 23 24 23 23 23 22 22 22 22 22 21 21 21 20 20 21 21 21 21 21 21 20 20 20 19 19 19 19 18 18 18 19 19 19 20
28 28 29 29 29 29 29 29 30 30 30 31 31 31 31 30 30 29 28 28 27 26 26 25 25 25 25 26 26 25 25 24 24 24 24 24 24 23 23 23 22 22 22 22 21 21 21 21 21 21 21 22 22 22 22 22 22 21 21 21 20 20 20 19 19 19 19 19 20
28 29 29 30 30 30 30 30 30 30 31 31 31 31 31 31 31 31 30 30 29 28 28 27 26 26 25 25 26 26 26 26 26 25 25 25 24 24 24 24 23 23 22 22 22 21 21 21 21 21 21 22 22 23 23 23 23 23 22 22 22 21 21 21 20 20 20 20 20
29 29 30 30 30 31 31 31 31 31 31 31 31 32 32 32 32 32 32 31 31 31 30 29 29 28 27 26 26 25 26 27 27 27 27 26 26 25 25 25 24 24 23 23 22 22 22 22 21 21 20 21 22 23 24 24 24 24 24 24 23 23 22 22 21 21 21 20 20
29 29 30 30 31 31 31 31 32 32 32 32 32 32 32 32 32 32 32 32 33 32 32 31 31 30 29 28 27 26 26 26 27 28 28 28 27 26 26 25 25 25 25 24 24 23 23 23 22 22 21 21 21 22 23 24 25 25 25 25 25 24 24 23 23 23 22 21 21
29 29 29 30 30 31 31 32 32 33 33 33 33 33 32 32 32 32 32 33 33 33 33 33 33 32 31 31 30 29 28 27 27 27 28 28 28 27 27 26 26 26 25 25 25 25 24 24 24 24 23 22 22 22 22 23 24 25 26 26 26 25 25 25 24 24 23 23 22
29 29 29 29 30 30 31 32 32 33 33 34 34 34 34 33 33 33 33 33 33 33 34 34 34 34 33 33 32 31 30 30 29 28 28 28 28 28 28 28 27 26 26 26 26 26 26 25 25 25 25 24 24 24 24 23 24 24 25 26 26 26 26 26 26 25 25 24 24
28 29 29 29 30 30 31 31 32 32 33 34 34 34 34 34 34 34 34 34 34 34 34 34 34 34 34 34 33 33 32 31 31 30 29 28 28 29 29 29 28 27 27 26 26 26 26 26 26 26 25 26 26 26 26 25 25 25 25 26 26 27 27 27 27 27 26 26 25
29 29 29 30 30 30 30 31 31 32 32 33 34 34 35 35 35 35 35 35 35 34 34 34 34 34 34 34 34 33 33 32 32 31 30 29 29 29 29 30 30 29 28 27 27 26 26 26 26 26 26 26 27 27 27 27 27 27 26 26 27 27 27 28 28 28 28 27 27
29 30 30 31 31 31 31 31 32 32 32 33 33 34 34 35 35 36 36 36 36 36 35 35 35 35 35 35 34 34 33 33 32 32 31 30 29 29 30 31 31 30 30 29 28 27 27 26 26 26 26 26 27 28 28 28 29 29 28 28 28 27 27 27 28 28 28 28 28
30 30 31 31 32 32 32 32 33 33 33 33 33 33 34 35 35 35 36 36 36 36 36 36 36 36 35 35 35 34 34 34 33 32 32 32 31 31 31 32 32 32 31 30 29 29 28 27 26 26 26 26 27 27 28 29 29 30 30 30 29 29 28 28 28 28 28 29 29
30 31 31 32 33 33 34 34 34 34 34 34 34 34 34 34 35 35 35 36 36 37 37 37 37 36 36 35 35 35 35 34 33 33 33 33 33 33 33 33 34 34 33 32 31 30 29 28 27 26 26 26 26 27 28 28 29 30 31 31 31 30 30 29 29 28 29 29 29
31 31 32 33 33 34 34 35 35 35 36 36 36 35 35 35 35 35 35 35 36 36 37 37 37 37 37 36 36 36 35 35 34 34 34 34 34 34 34 35 35 35 34 33 33 32 31 30 29 28 27 26 27 27 27 28 29 30 31 32 32 32 31 31 30 30 29 29 29
32 32 33 33 34 34 35 35 36 36 36 37 37 37 37 36 36 36 36 36 36 36 37 37 38 38 37 37 36 36 36 36 36 35 35 35 36 36 36 36 36 36 36 35 34 33 32 31 30 29 28 27 27 27 27 28 29 30 31 32 32 32 32 32 32 31 31 30 29
33 34 34 34 35 35 36 36 37 37 37 37 37 38 38 38 38 37 37 37 37 37 37 37 38 38 38 37 37 37 38 38 38 37 37 37 37 37 37 37 38 38 37 37 36 35 34 33 32 30 29 28 27 27 27 27 29 30 31 32 32 32 33 33 33 32 32 31 31
Wind_Direction
354 351 349 347 344 343 340 337 332 327 323 320 316 314 311 309 307 306 306 306 306 307 308 310 310 310 308 305 301 297 293 289 287 287 288 289 290 289 286 281 276 269 261 254 248 242 238 236 233 232 233 233 234 234 233 230 228 226 224 223 223 223 224 224 225 225 225 227 229
359 355 352 350 347 344 342 340 337 333 330 328 327 324 320 316 312 309 307 306 306 305 306 306 307 308 308 307 306 303 299 294 289 285 284 285 286 287 287 286 283 278 271 264 257 251 246 241 236 233 231 231 232 233 234 233 231 230 228 227 226 226 226 227 227 227 226 225 225
5 1 358 354 350 347 344 342 340 337 335 333 332 330 327 324 320 315 312 309 307 306 305 304 304 305 305 306 306 305 304 300 296 290 285 282 281 281 282 283 283 282 278 273 266 261 256 251 245 239 235 232 231 231 232 233 233 232 230 229 229 228 228 228 229 230 229 229 228
10 7 3 359 355 351 348 345 343 341 339 337 335 332 330 327 324 321 317 313 310 307 305 304 303 303 303 304 304 305 304 303 301 297 292 287 281 277 275 275 276 277 277 276 272 268 264 260 256 251 245 240 236 233 232 232 233 232 231 230 230 229 229 229 230 232 232 232 232
15 11 8 4 1 357 354 350 347 344 342 339 337 334 331 328 326 324 321 317 314 310 308 306 304 303 303 303 303 303 303 303 302 300 298 294 289 283 278 274 272 272 273 273 273 272 269 266 263 259 255 251 246 241 237 235 233 232 231 230 229 228 228 228 229 230 231 232 233
18 15 12 9 6 2 359 356 352 348 344 341 338 335 332 329 327 325 322 320 317 314 312 309 307 305 304 303 302 302 301 301 301 300 299 297 295 292 287 282 278 275 274 273 273 272 271 269 267 263 260 256 253 250 246 241 237 234 232 230 229 227 226 225 225 225 226 228 229
20 18 15 12 9 7 4 360 356 352 348 344 340 337 333 330 327 325 323 320 318 317 315 313 310 308 306 304 303 301 300 299 298 298 297 297 296 295 292 289 286 283 280 277 275 273 272 271 269 267 264 260 256 253 251 248 243 239 235 232 230 228 225 223 222 221 222 222 224
20 18 17 14 12 10 8 4 1 357 353 349 345 341 337 334 330 326 323 320 318 317 316 314 311 309 307 306 305 303 301 299 297 295 294 294 294 294 293 292 290 288 285 283 280 277 275 273 271 269 267 264 261 256 252 249 246 242 238 234 232 230 227 225 223 221 221 220 221
16 16 15 14 13 12 10 8 5 2 358 355 351 348 344 340 336 332 327 324 321 319 316 314 311 308 306 305 304 303 302 300 298 295 293 291 291 290 291 291 291 290 289 287 285 282 279 276 273 270 267 265 263 260 257 252 247 243 239 235 233 231 230 229 227 226 225 224 223
11 10 10 11 11 11 10 9 7 5 2 360 357 354 351 348 344 340 336 332 328 323 319 315 311 308 306 304 302 301 300 300 298 296 294 292 290 288 288 288 289 289 290 289 288 287 284 281 277 273 269 265 263 262 260 256 252 247 243 239 235 233 232 232 233 233 232 231 230
6 6 7 7 7 7 7 7 7 6 4 2 360 358 356 353 351 348 345 341 336 331 325 320 315 311 308 305 302 300 298 297 296 296 295 293 291 289 288 287 287 287 288 289 289 289 288 286 283 280 275 270 266 263 262 260 258 255 251 247 243 240 237 237 237 238 238 238 237
1 2 2 3 3 3 3 3 4 4 4 2 360 358 356 355 353 352 349 347 343 339 335 330 324 319 314 309 305 302 299 297 295 294 293 292 291 290 289 288 287 287 287 288 289 289 290 290 288 287 284 281 277 272 269 267 265 263 261 259 255 252 248 245 243 242 242 242 241
354 355 355 356 357 357 358 359 360 1 1 1 360 358 356 355 353 351 349 348 346 345 343 340 335 330 324 318 312 307 303 299 297 294 291 290 289 289 288 288 287 287 287 287 287 289 290 291 291 290 289 288 287 285 282 279 277 275 273 271 269 266 262 258 254 250 248 246 243
346 347 348 348 349 350 351 352 354 356 357 358 358 358 356 355 352 350 348 346 345 345 345 344 342 338 334 329 324 318 312 307 302 297 294 291 289 288 287 287 286 286 286 285 285 286 288 289 289 290 290 290 290 289 287 286 284 283 283 281 281 279 277 273 268 263 258 254 250
341 341 341 342 342 343 344 346 347 349 351 353 354 355 355 355 353 351 348 345 343 342 342 342 342 341 339 337 333 329 324 319 313 307 301 297 293 290 287 286 285 285 285 285 285 285 285 285 286 287 287 288 287 286 285 283 283 283 284 286 286 287 287 285 282 277 272 266 261
337 337 337 338 338 339 339 340 341 342 343 345 346 348 350 352 352 352 351 348 344 341 339 338 337 338 338 337 336 334 331 328 324 318 313 307 302 297 293 289 287 285 284 284 284 284 284 283 283 283 283 283 283 283 282 281 279 279 280 283 286 287 288 288 286 284 281 277 273
334 335 335 336 337 337 337 338 338 338 338 338 339 340 342 344 346 348 350 350 347 344 341 337 335 333 333 333 333 332 332 330 329 326 323 319 314 309 304 298 294 290 287 284 283 284 284 284 283 282 281 280 280 280 280 280 279 277 276 276 278 281 283 283 282 281 281 280 278
333 333 334 335 336 336 337 337 336 336 335 334 334 334 334 335 337 340 343 345 346 346 345 341 337 334 331 330 329 328 328 328 328 327 326 324 322 319 315 311 306 301 296 291 288 286 285 284 284 283 281 279 278 278 278 278 278 277 275 273 271 271 272 273 273 274 274 275 276
335 334 334 335 335 336 336 336 336 335 335 334 333 331 331 330 329 330 333 336 340 342 344 343 340 337 333 330 327 325 324 324 324 324 324 324 323 322 321 319 316 313 309 304 299 294 291 289 287 286 284 281 279 277 275 275 275 275 275 273 271 269 268 267 268 268 269 270 271
337 337 338 338 337 337 337 336 336 336 335 334 332 331 330 328 326 325 325 327 330 334 338 339 339 338 335 332 329 326 323 321 320 320 320 320 320 320 320 320 319 317 316 314 311 308 304 300 297 294 292 289 285 282 278 276 274 273 273 272 272 270 269 268 267 267 267 267 266
337 338 339 340 340 339 339 338 338 337 336 335 333 332 330 328 326 324 322 321 322 325 329 333 335 335 335 333 331 328 325 322 319 318 317 316 316 316 317 317 317 318 318 317 317 315 314 311 309 306 304 300 296 293 288 283 279 276 274 273 272 270 269 268 268 267 267 267 266
334 336 336 337 337 338 337 338 337 337 336 335 334 332 330 329 327 325 322 319 318 318 320 324 327 330 331 331 331 329 326 323 320 318 316 314 313 312 313 313 314 315 316 317 317 317 316 315 314 312 310 308 305 303 300 296 290 285 281 278 275 273 271 268 267 266 266 266 265
330 331 332 332 332 333 333 333 333 334 334 334 333 332 331 330 328 326 324 321 318 315 314 314 318 322 325 327 328 327 326 323 321 319 316 314 311 309 308 308 309 310 312 314 315 315 316 315 315 313 312 309 307 306 305 303 300 297 292 288 283 279 276 272 269 267 265 264 264
326 326 327 327 327 328 328 328 329 329 330 330 331 331 330 329 328 327 326 323 320 317 313 310 309 311 315 320 323 324 324 323 321 319 317 315 312 309 307 305 304 305 306 308 310 311 312 313 314 313 312 310 308 307 305 304 303 302 300 297 293 289 284 280 276 272 269 266 264
323 323 323 323 323 323 324 324 325 325 326 326 327 327 327 327 327 326 325 324 322 319 315 311 307 304 305 309 315 319 321 321 320 319 318 316 313 311 308 305 302 301 301 302 303 304 306 308 310 310 311 310 309 308 306 304 303 302 301 300 298 296 293 290 286 282 278 274 270
321 320 320 320 320 320 321 321 321 322 322 322 322 323 323 323 324 324 323 323 322 320 318 314 309 304 300 300 304 310 315 318 318 318 317 316 315 313 311 308 305 302 300 298 298 298 299 301 303 304 305 306 307 306 306 305 304 303 301 300 299 298 297 296 294 292 289 285 280
320 319 319 318 318 318 318 319 319 319 319 319 319 319 320 320 320 320 320 320 320 319 317 315 312 308 302 298 297 300 306 311 313 314 314 314 314 314 313 311 309 307 304 301 298 296 295 295 296 297 298 299 301 301 302 302 302 302 301 300 299 298 298 298 297 296 294 292 290
320 319 318 317 317 317 317 317 317 317 317 317 317 317 317 317 318 318 318 318 317 316 316 315 314 312 307 301 296 295 297 302 307 309 311 311 312 312 313 312 312 311 309 306 303 300 297 295 293 292 292 293 293 294 295 296 297 298 298 298 298 298 298 297 297 296 295 294 294
320 319 318 317 317 316 316 316 316 316 316 316 316 316 316 316 316 316 316 315 315 315 315 314 314 313 311 307 302 297 294 295 299 303 307 308 308 309 310 311 312 312 312 311 310 308 305 301 297 294 291 289 289 288 289 290 291 292 293 294 295 295 296 296 296 295 295 294 294
320 319 318 318 317 317 316 316 316 315 315 315 314 314 314 314 314 314 314 314 314 314 314 314 313 313 312 311 308 303 298 294 295 298 302 305 306 306 307 308 309 310 311 312 312 312 311 309 306 302 298 294 290 287 286 286 287 288 289 289 290 291 293 293 294 294 294 294 293
320 320 319 318 317 316 316 316 316 315 315 314 313 313 313 313 312 313 313 313 313 313 312 312 312 312 311 311 311 308 304 300 297 297 299 301 303 303 303 304 305 306 308 310 311 312 312 311 310 309 306 303 298 293 289 287 286 286 285 286 286 287 289 290 291 292 292 292 292
321 320 319 318 317 316 316 316 315 315 314 314 313 312 312 311 311 311 311 311 311 311 311 311 311 311 310 310 310 309 308 306 303 300 299 300 301 301 301 300 301 302 304 306 307 309 310 310 310 310 309 308 305 301 297 293 290 288 286 285 284 284 285 286 287 288 288 289 290
322 321 320 319 317 316 316 315 315 314 314 314 313 312 312 311 310 310 310 310 310 310 310 310 310 310 310 310 309 309 309 308 307 305 303 302 301 301 300 299 299 299 301 302 304 305 307 307 308 309 309 309 308 306 304 301 297 294 291 288 286 284 283 283 283 283 284 285 286
323 322 321 320 318 317 316 315 314 314 313 313 312 312 312 312 311 310 309 309 309 308 308 308 308 308 308 309 308 308 308 307 307 306 305 304 302 301 300 299 299 299 299 299 300 301 302 304 305 306 306 307 306 306 305 304 301 299 296 293 291 288 286 284 282 282 281 282 282
324 323 322 321 320 319 317 316 315 314 313 312 312 311 312 311 311 311 310 310 309 308 307 306 306 306 306 306 306 306 306 306 306 305 304 303 302 300 299 299 299 299 299 298 298 298 299 300 301 302 303 304 304 304 304 303 301 300 299 297 295 293 290 288 286 284 282 282 281
324 323 323 322 321 320 319 318 317 316 314 313 312 312 311 311 311 311 311 310 309 308 307 306 306 305 305 305 305 305 305 304 304 303 302 301 300 298 298 298 299 299 299 298 298 297 296 297 297 298 300 300 301 301 301 300 299 299 298 298 296 295 293 291 289 287 285 284 283
323 323 322 322 322 321 321 320 319 318 317 316 314 313 312 311 310 310 310 311 310 309 308 307 307 306 305 304 304 304 303 303 302 301 301 299 298 297 297 297 298 299 299 298 298 297 296 296 295 296 297 297 297 297 297 297 297 297 296 296 296 295 295 294 292 290 288 286 284
321 321 321 321 321 321 321 321 320 320 319 318 317 315 314 312 311 311 310 311 311 310 309 309 308 306 305 305 304 303 302 301 301 300 299 298 297 297 297 297 297 297 298 298 298 297 297 296 295 295 294 294 294 294 294 294 294 294 293 294 294 294 294 294 293 292 290 288 286
320 320 319 319 319 320 320 320 319 319 319 318 317 316 315 314 313 312 311 311 310 310 310 309 308 307 306 305 304 303 301 301 300 299 298 297 297 296 296 296 296 296 297 297 297 297 296 296 295 295 294 293 292 292 291 291 291 291 291 291 292 292 292 292 292 292 291 290 289
317 318 317 317 317 317 317 317 317 317 317 317 316 316 316 315 314 313 312 312 311 310 309 309 307 306 306 306 304 303 301 300 299 298 297 296 296 296 296 295 295 295 296 296 296 296 296 296 296 296 295 293 292 291 289 288 288 288 288 289 289 290 290 290 291 291 291 291 291
315 315 315 315 315 315 315 315 315 315 315 314 314 314 314 315 314 314 313 312 311 310 309 308 307 306 305 305 303 302 301 300 298 298 297 297 296 296 295 295 295 295 295 296 296 296 296 296 296 296 295 294 292 290 288 286 285 285 285 286 287 288 288 288 288 288 289 289 290